Location: Middle Street
(51.7167°N, 0.0333°E)
Time: 23:53:37
(UTC+00:00)

IRS-1C Rocket - Pass Details

Date: 20 January 2021
Orbit: 801 x 805 km, 99.0° (Epoch: 01 March)

Event Time Altitude Azimuth Distance (km) Brightness Sun altitude
Rises 17:49:36 0° 152° (SSE) 3,301 7.2 -12.3°
Reaches altitude 10° 17:51:56 10° 150° (SSE) 2,375 6.4 -12.7°
Maximum altitude 17:57:07 65° 69° (ENE) 882 4.0 -13.4°
Drops below altitude 10° 18:02:21 10° 349° (N) 2,391 6.5 -14.2°
Sets 18:04:42 0° 347° (NNW) 3,325 7.3 -14.6°
